Location: Newark
(36.1358°N, 115.1208°W)
Time: 15:31:05
(UTC+00:00)

Vanguard 1 Rocket - Pass Details

Date: 20 February 2020
Orbit: 650 x 4227 km, 34.3° (Epoch: 30 March)

Event Time Altitude Azimuth Distance (km) Brightness Sun altitude
Rises 14:55:44 0° 275° (W) 2,984 9.4 5.6°
Reaches altitude 10° 14:58:04 10° 267° (W) 2,043 8.7 6.1°
Maximum altitude 15:02:09 39° 197° (SSW) 1,049 7.9 6.9°
Drops below altitude 10° 15:07:16 10° 129° (SE) 2,566 11.4 7.8°
Sets 15:10:33 0° 122° (ESE) 3,881 12.6 8.5°
